Location: Mauries
(43.6188°N, 0.3322°W)
Time: 04:28:47
(UTC+00:00)

SeaSat 1 - Pass Details

Date: 14 January 2026
Orbit: 737 x 740 km, 108.0° (Epoch: 15 February)

Event Time Altitude Azimuth Distance (km) Brightness Sun altitude
Rises 06:49:39 0° 21° (NNE) 3,183 5.7 -7.8°
Reaches altitude 10° 06:51:59 10° 16° (NNE) 2,256 4.9 -7.4°
Maximum altitude 06:56:40 47° 303° (WNW) 972 2.7 -6.6°
Drops below altitude 10° 07:01:20 10° 231° (SW) 2,243 4.7 -5.8°
Sets 07:03:38 0° 225° (SW) 3,163 5.5 -5.4°
